TimeEST,TemperatureF,Dew PointF,Humidity,Sea Level PressureIn,VisibilityMPH,Wind Direction,Wind SpeedMPH,Gust SpeedMPH,PrecipitationIn,Events,Conditions,WindDirDegrees,DateUTC
12:53 AM,53.6,39.2,58,29.99,10.0,SW,9.2,-,N/A,,Clear,220,2011-11-26 05:53:00
1:53 AM,53.1,39.0,59,29.99,10.0,SSW,9.2,-,N/A,,Clear,210,2011-11-26 06:53:00
2:53 AM,52.0,39.0,61,30.00,10.0,SSW,8.1,-,N/A,,Partly Cloudy,210,2011-11-26 07:53:00
3:53 AM,52.0,39.0,61,29.99,10.0,South,6.9,-,N/A,,Overcast,190,2011-11-26 08:53:00
4:53 AM,50.0,39.0,66,29.99,10.0,South,5.8,-,N/A,,Partly Cloudy,190,2011-11-26 09:53:00
5:53 AM,48.0,37.9,68,29.99,10.0,South,6.9,-,N/A,,Clear,170,2011-11-26 10:53:00
6:53 AM,46.9,37.9,71,29.99,10.0,South,8.1,-,N/A,,Clear,180,2011-11-26 11:53:00
7:53 AM,46.9,37.9,71,30.00,10.0,South,8.1,-,N/A,,Clear,190,2011-11-26 12:53:00
8:53 AM,48.9,37.9,66,30.00,10.0,SSW,8.1,-,N/A,,Clear,200,2011-11-26 13:53:00
9:53 AM,51.1,37.9,61,29.98,10.0,South,9.2,19.6,N/A,,Clear,190,2011-11-26 14:53:00
10:53 AM,53.1,39.9,61,29.99,10.0,SSW,8.1,-,N/A,,Clear,200,2011-11-26 15:53:00
11:53 AM,55.9,42.1,60,29.97,10.0,SSW,12.7,-,N/A,,Scattered Clouds,200,2011-11-26 16:53:00
12:53 PM,59.0,45.0,60,29.94,10.0,SSW,9.2,23.0,N/A,,Scattered Clouds,200,2011-11-26 17:53:00
1:53 PM,57.9,45.0,62,29.92,10.0,South,11.5,-,N/A,,Partly Cloudy,170,2011-11-26 18:53:00
2:43 PM,57.2,46.4,67,29.90,10.0,South,11.5,-,N/A,,Overcast,180,2011-11-26 19:43:00
2:53 PM,57.9,46.9,67,29.90,10.0,South,13.8,-,N/A,,Overcast,190,2011-11-26 19:53:00
3:53 PM,59.0,48.0,67,29.89,10.0,South,9.2,-,N/A,,Overcast,190,2011-11-26 20:53:00
4:53 PM,59.0,48.0,67,29.88,10.0,South,11.5,-,N/A,,Mostly Cloudy,180,2011-11-26 21:53:00
5:53 PM,59.0,48.0,67,29.88,10.0,South,15.0,23.0,N/A,,Overcast,180,2011-11-26 22:53:00
6:53 PM,60.1,48.0,64,29.87,10.0,South,15.0,24.2,N/A,,Scattered Clouds,180,2011-11-26 23:53:00
7:53 PM,60.1,46.9,62,29.86,10.0,South,17.3,25.3,N/A,,Overcast,190,2011-11-27 00:53:00
8:40 PM,57.2,48.2,72,29.86,10.0,South,18.4,28.8,0.00,,Overcast,190,2011-11-27 01:40:00
8:53 PM,57.0,50.0,77,29.86,10.0,South,17.3,26.5,0.00,,Overcast,190,2011-11-27 01:53:00
9:53 PM,57.0,50.0,77,29.84,10.0,South,11.5,19.6,N/A,,Overcast,190,2011-11-27 02:53:00
10:53 PM,55.4,50.0,82,29.84,10.0,South,11.5,-,N/A,Rain,Light Rain,190,2011-11-27 03:53:00
11:53 PM,55.0,48.9,80,29.83,10.0,South,11.5,-,0.01,,Overcast,180,2011-11-27 04:53:00